Cheraw, SC

3:57 PM EST on January 20, 2017 (GMT -0500)
Cheraw

Weather History for KCQW - December, 2012

Change the Weather History Date:

Thursday, December 13, 2012

  Actual Average (KFLO) Record (KFLO)
Temperature  
Mean Temperature 44 °F -  
Max Temperature 51 °F 59 °F 80 °F (1991)
Min Temperature 37 °F 38 °F 8 °F (1962)
Degree Days  
Heating Degree Days 21    
Moisture  
Dew Point 37 °F    
Average Humidity 84    
Maximum Humidity 100    
Minimum Humidity 54    
Precipitation  
Precipitation 0.68 in - - ()
Sea Level Pressure  
Sea Level Pressure 30.32 in    
Wind  
Wind Speed 18 mph (NNE)    
Max Wind Speed 32 mph    
Max Gust Speed 52 mph    
Visibility 9 miles    
Events Rain    
Averages and records for this station are not official NWS values.
T = Trace of Precipitation, MM = Missing Value Source: NWS Daily Summary

Daily Weather History Graph

Daily Weather History Graph

Search for Another Location

Airport or City:

Trip Planner

Search our weather history database for the weather conditions in past years. The results will help you decide how hot, cold, wet, or windy it might be!

Date:

Astronomy

Dec. 13, 2012 Rise Set
Actual Time 7:18 AM EST 5:09 PM EST
Civil Twilight 6:50 AM EST 5:37 PM EST
Nautical Twilight 6:19 AM EST 6:09 PM EST
Astronomical Twilight 5:48 AM EST 6:40 PM EST
Moon 7:26 AM EST (12/13) 5:49 PM EST (12/13)
Length of Visible Light 10h 47m
Length of Day
9h 51m
New Moon, 0% of the Moon is Illuminated
Dec 13
New Moon
Dec 20
First Quarter
Dec 28
Full
Jan 4
Last Quarter
Jan 11
New

Hourly Weather History & Observations

Time (EST) Temp. Windchill Dew Point Humidity Pressure Visibility Wind Dir Wind Speed Gust Speed Precip Events Conditions
12:15 AM 39.2 °F 29.3 °F 37.4 °F 93% 30.27 in 10.0 mi NNE 20.7 mph 29.9 mph N/A   Overcast
12:35 AM 39.2 °F 31.2 °F 37.4 °F 93% 30.29 in 10.0 mi North 13.8 mph 23.0 mph N/A   Overcast
12:55 AM 39.2 °F 30.8 °F 37.4 °F 93% 30.28 in 5.0 mi North 15.0 mph 27.6 mph 0.02 in Rain Rain
1:15 AM 37.4 °F 27.8 °F 37.4 °F 100% 30.29 in 4.0 mi North 17.3 mph 31.1 mph 0.03 in Rain Rain
1:35 AM 37.4 °F 28.2 °F 37.4 °F 100% 30.29 in 2.5 mi North 16.1 mph 24.2 mph 0.15 in Rain Heavy Rain
1:55 AM 37.4 °F 27.5 °F 37.4 °F 100% 30.29 in 2.5 mi North 18.4 mph 26.5 mph 0.29 in Rain Heavy Rain
2:15 AM 37.4 °F 29.3 °F 37.4 °F 100% 30.29 in 2.5 mi North 12.7 mph 19.6 mph 0.06 in Rain Rain
2:35 AM 37.4 °F 26.1 °F 37.4 °F 100% 30.28 in 3.0 mi NNE 24.2 mph 31.1 mph 0.16 in Rain Rain
2:55 AM 37.4 °F 25.2 °F 37.4 °F 100% 30.27 in 3.0 mi NNE 28.8 mph 42.6 mph 0.26 in Rain Rain
3:15 AM 37.4 °F 24.6 °F 37.4 °F 100% 30.24 in 3.0 mi NE 32.2 mph 44.9 mph 0.06 in Rain Rain
3:35 AM 37.4 °F 25.0 °F 37.4 °F 100% 30.24 in 5.0 mi NE 29.9 mph 43.7 mph 0.10 in Rain Light Rain
3:55 AM 37.4 °F 24.8 °F 37.4 °F 100% 30.24 in 7.0 mi NE 31.1 mph 39.1 mph 0.11 in Rain Light Rain
4:15 AM 37.4 °F 26.1 °F 37.4 °F 100% 30.23 in 10.0 mi NE 24.2 mph 40.3 mph N/A Rain Light Rain
4:35 AM 37.4 °F 25.6 °F 37.4 °F 100% 30.24 in 9.0 mi NE 26.5 mph 34.5 mph N/A Rain Light Rain
4:55 AM 37.4 °F 27.5 °F 37.4 °F 100% 30.25 in 8.0 mi North 18.4 mph 24.2 mph N/A   Overcast
5:15 AM 37.4 °F 27.8 °F 37.4 °F 100% 30.28 in 9.0 mi NNW 17.3 mph 24.2 mph N/A   Light Drizzle
5:35 AM 37.4 °F 26.9 °F 37.4 °F 100% 30.30 in 9.0 mi NNW 20.7 mph 26.5 mph N/A   Overcast
5:55 AM 37.4 °F 27.5 °F 37.4 °F 100% 30.30 in 9.0 mi North 18.4 mph 27.6 mph N/A   Overcast
6:15 AM 37.4 °F 27.5 °F 37.4 °F 100% 30.31 in 7.0 mi North 18.4 mph 36.8 mph N/A   Light Drizzle
6:35 AM 37.4 °F 26.4 °F 37.4 °F 100% 30.32 in 2.5 mi North 23.0 mph 38.0 mph N/A   Overcast
6:55 AM 37.4 °F 26.9 °F 37.4 °F 100% 30.32 in 4.0 mi NNE 20.7 mph 51.8 mph N/A   Overcast
7:15 AM 37.4 °F 25.9 °F 37.4 °F 100% 30.33 in 9.0 mi North 25.3 mph 33.4 mph N/A   Overcast
7:35 AM 37.4 °F 27.2 °F 35.6 °F 93% 30.33 in 10.0 mi NNE 19.6 mph 33.4 mph N/A   Overcast
7:55 AM 37.4 °F 26.6 °F 35.6 °F 93% 30.34 in 10.0 mi North 21.9 mph 32.2 mph N/A   Overcast
8:15 AM 37.4 °F 26.1 °F 35.6 °F 93% 30.34 in 10.0 mi NNE 24.2 mph 31.1 mph N/A   Mostly Cloudy
8:35 AM 39.2 °F 30.2 °F 35.6 °F 87% 30.35 in 10.0 mi North 17.3 mph 28.8 mph N/A   Overcast
8:55 AM 39.2 °F 29.8 °F 35.6 °F 87% 30.36 in 10.0 mi North 18.4 mph 29.9 mph N/A   Overcast
9:15 AM 39.2 °F 30.8 °F 35.6 °F 87% 30.37 in 10.0 mi North 15.0 mph 27.6 mph N/A   Mostly Cloudy
9:35 AM 39.2 °F 28.5 °F 35.6 °F 87% 30.37 in 10.0 mi NNE 24.2 mph 31.1 mph N/A   Overcast
9:55 AM 41.0 °F 31.6 °F 35.6 °F 81% 30.37 in 10.0 mi NNE 20.7 mph 29.9 mph N/A   Mostly Cloudy
10:15 AM 42.8 °F 34.8 °F 35.6 °F 76% 30.37 in 10.0 mi NNE 17.3 mph 28.8 mph N/A   Overcast
10:35 AM 42.8 °F 34.0 °F 35.6 °F 76% 30.37 in 10.0 mi NNE 20.7 mph 33.4 mph N/A   Overcast
10:55 AM 44.6 °F 35.5 °F 37.4 °F 76% 30.37 in 10.0 mi NE 25.3 mph 35.7 mph N/A   Overcast
11:15 AM 44.6 °F 36.6 °F 37.4 °F 76% 30.36 in 10.0 mi NNE 19.6 mph 33.4 mph N/A   Overcast
11:35 AM 44.6 °F 36.1 °F 37.4 °F 76% 30.37 in 10.0 mi NE 21.9 mph 29.9 mph N/A   Overcast
11:55 AM 46.4 °F 38.7 °F 37.4 °F 71% 30.36 in 10.0 mi North 20.7 mph 27.6 mph N/A   Overcast
12:15 PM 46.4 °F 39.0 °F 37.4 °F 71% 30.35 in 10.0 mi North 19.6 mph 31.1 mph N/A   Partly Cloudy
12:35 PM 48.2 °F - 37.4 °F 66% 30.34 in 10.0 mi NE 23.0 mph 33.4 mph N/A   Partly Cloudy
12:55 PM 48.2 °F - 37.4 °F 66% 30.33 in 10.0 mi North 23.0 mph 31.1 mph N/A   Scattered Clouds
1:15 PM 50.0 °F - 37.4 °F 62% 30.32 in 10.0 mi NE 18.4 mph 26.5 mph N/A   Partly Cloudy
1:35 PM 51.8 °F - 35.6 °F 54% 30.32 in 10.0 mi North 18.4 mph 28.8 mph N/A   Clear
1:55 PM 51.8 °F - 35.6 °F 54% 30.32 in 10.0 mi North 23.0 mph 27.6 mph N/A   Clear
2:15 PM 51.8 °F - 35.6 °F 54% 30.31 in 10.0 mi NE 15.0 mph 29.9 mph N/A   Clear
2:35 PM 51.8 °F - 35.6 °F 54% 30.31 in 10.0 mi NNE 15.0 mph 28.8 mph N/A   Clear
2:55 PM 51.8 °F - 35.6 °F 54% 30.30 in 10.0 mi NNE 21.9 mph 27.6 mph N/A   Clear
3:15 PM 51.8 °F - 37.4 °F 58% 30.31 in 10.0 mi NNE 17.3 mph 25.3 mph N/A   Clear
3:35 PM 51.8 °F - 37.4 °F 58% 30.30 in 10.0 mi North 15.0 mph 23.0 mph N/A   Clear
3:55 PM 51.8 °F - 37.4 °F 58% 30.30 in 10.0 mi North 12.7 mph 25.3 mph N/A   Clear
4:15 PM 50.0 °F - 35.6 °F 58% 30.30 in 10.0 mi North 12.7 mph 24.2 mph N/A   Clear
4:35 PM 50.0 °F - 35.6 °F 58% 30.31 in 10.0 mi North 16.1 mph 21.9 mph N/A   Clear
4:55 PM 48.2 °F - 35.6 °F 62% 30.31 in 10.0 mi North 8.1 mph - N/A   Clear
5:15 PM 46.4 °F 42.4 °F 35.6 °F 66% 30.31 in 10.0 mi North 8.1 mph - N/A   Clear
5:35 PM 44.6 °F 40.7 °F 37.4 °F 76% 30.32 in 10.0 mi North 6.9 mph - N/A   Clear
8:15 PM 39.2 °F 37.0 °F 37.4 °F 93% 30.34 in 10.0 mi NNE 3.5 mph - N/A   Clear
8:35 PM 39.2 °F 37.0 °F 35.6 °F 87% 30.35 in 10.0 mi North 3.5 mph - N/A   Clear
8:55 PM 39.2 °F 35.9 °F 35.6 °F 87% 30.34 in 10.0 mi NE 4.6 mph - N/A   Clear
9:15 PM 37.4 °F 33.8 °F 35.6 °F 93% 30.34 in 10.0 mi NE 4.6 mph - N/A   Clear
9:35 PM 37.4 °F 33.8 °F 35.6 °F 93% 30.34 in 10.0 mi NE 4.6 mph - N/A   Clear
9:55 PM 39.2 °F 35.0 °F 35.6 °F 87% 30.34 in 10.0 mi NNE 5.8 mph - N/A   Clear
10:15 PM 37.4 °F 34.9 °F 35.6 °F 93% 30.34 in 10.0 mi NNE 3.5 mph - N/A   Clear
10:35 PM 37.4 °F 33.8 °F 35.6 °F 93% 30.35 in 10.0 mi North 4.6 mph - N/A   Clear
10:55 PM 37.4 °F 32.8 °F 35.6 °F 93% 30.36 in 10.0 mi North 5.8 mph - N/A   Clear
11:15 PM 37.4 °F 33.8 °F 35.6 °F 93% 30.36 in 10.0 mi North 4.6 mph - N/A   Clear
11:35 PM 37.4 °F 34.9 °F 35.6 °F 93% 30.35 in 10.0 mi NNE 3.5 mph - N/A   Clear
11:55 PM 37.4 °F 33.8 °F 33.8 °F 87% 30.35 in 10.0 mi North 4.6 mph - N/A   Clear